Location: Mt. Bigelow
(32.4165°N, 110.7345°W)
Time: 18:46:52
(UTC-07:00)

N. Korean satellite - Pass Details

Date: 23 February 2019
Orbit: 456 x 510 km, 97.2° (Epoch: 20 March)

Event Time Altitude Azimuth Distance (km) Brightness Sun altitude
Rises 05:48:56 0° 28° (NNE) 2,473 10.5 -15.2°
Reaches altitude 10° 05:51:21 10° 46° (NE) 1,592 9.8 -14.7°
Maximum altitude 05:53:58 21° 96° (E) 1,084 9.4 -14.1°
Drops below altitude 10° 05:56:35 10° 147° (SSE) 1,581 9.7 -13.6°
Sets 05:58:58 0° 164° (SSE) 2,451 10.4 -13.1°
